Location: Boiro
(42.6475°N, 8.8834°W)
Time: 07:32:45
(UTC+02:00)

SL-8 DEB - Pass Details

Date: 06 July 2022
Orbit: 890 x 1013 km, 83.1° (Epoch: 16 August)

Event Time Altitude Azimuth Distance (km) Brightness Sun altitude
Rises 00:46:05 0° 354° (N) 3,595 ? -19.5°
Reaches altitude 10° 00:48:38 10° 358° (N) 2,630 ? -19.8°
Maximum altitude 00:54:34 66° 81° (E) 983 ? -20.2°
Enters shadow 00:56:46 39° 149° (SSE) 1,332 ? -20.4°
